Rome, NY

1:14 PM EDT on July 25, 2017 (GMT -0400)
Griffiss

Weather History for KRME - October, 2013

Change the Weather History Date:

Friday, October 4, 2013

  Actual Average Record
Temperature  
Mean Temperature 58 °F -  
Max Temperature 62 °F 61 °F 73 °F (1983)
Min Temperature 54 °F 45 °F 30 °F (1996)
Degree Days  
Heating Degree Days 7    
Growing Degree Days 8 (Base 50)    
Moisture  
Dew Point 55 °F    
Average Humidity 92    
Maximum Humidity 97    
Minimum Humidity 80    
Precipitation  
Precipitation 0.48 in - - ()
Sea Level Pressure  
Sea Level Pressure 30.05 in    
Wind  
Wind Speed 6 mph (East)    
Max Wind Speed 10 mph    
Max Gust Speed -    
Visibility 9 miles    
Events Rain , Thunderstorm    
Averages and records for this station are not official NWS values.
T = Trace of Precipitation, MM = Missing Value Source: NWS Daily Summary

Daily Weather History Graph

Daily Weather History Graph

Search for Another Location

Airport or City:

Trip Planner

Search our weather history database for the weather conditions in past years. The results will help you decide how hot, cold, wet, or windy it might be!

Date:

Astronomy

Oct. 04, 2013 Rise Set
Actual Time 7:02 AM EDT 6:37 PM EDT
Civil Twilight 6:34 AM EDT 7:05 PM EDT
Nautical Twilight 6:01 AM EDT 7:38 PM EDT
Astronomical Twilight 5:27 AM EDT 8:11 PM EDT
Moon 6:36 AM EDT (10/4) 6:17 PM EDT (10/4)
Length of Visible Light 12h 31m
Length of Day
11h 34m
Waning Crescent, 0% of the Moon is Illuminated
Oct 4
Waning Crescent
Oct 4
New
Oct 11
First Quarter
Oct 18
Full
Oct 26
Last Quarter

Hourly Weather History & Observations

Time (EDT) Temp. Dew Point Humidity Pressure Visibility Wind Dir Wind Speed Gust Speed Precip Events Conditions
1:53 AM 54.0 °F 48.9 °F 83% 30.06 in 10.0 mi SE 4.6 mph - N/A Thunderstorm Overcast
2:53 AM 55.0 °F 48.9 °F 80% 30.04 in 10.0 mi SE 5.8 mph - N/A   Overcast
3:53 AM 54.0 °F 51.1 °F 90% 30.04 in 10.0 mi SE 3.5 mph - 0.02 in Rain Light Rain
4:53 AM 54.0 °F 52.0 °F 93% 30.03 in 7.0 mi ESE 8.1 mph - 0.02 in Rain Light Rain
5:22 AM 54.0 °F 52.0 °F 93% 30.06 in 1.8 mi NW 9.2 mph - 0.16 in Rain Heavy Rain
5:27 AM 54.0 °F 53.1 °F 97% 30.06 in 0.8 mi North 6.9 mph - 0.28 in Rain Heavy Rain
5:38 AM 54.0 °F 53.1 °F 97% 30.04 in 2.0 mi ENE 9.2 mph - 0.36 in Rain Heavy Rain
5:46 AM 55.0 °F 53.1 °F 93% 30.03 in 9.0 mi East 10.4 mph - 0.36 in Rain Light Rain
5:53 AM 55.0 °F 53.1 °F 93% 30.03 in 10.0 mi East 10.4 mph - 0.36 in Rain Light Rain
6:53 AM 55.0 °F 52.0 °F 89% 30.04 in 10.0 mi East 8.1 mph - 0.01 in   Overcast
7:12 AM 55.0 °F 53.1 °F 93% 30.05 in 10.0 mi ESE 8.1 mph - N/A   Overcast
7:53 AM 55.0 °F 53.1 °F 93% 30.06 in 10.0 mi SE 4.6 mph - 0.00 in Rain Light Rain
8:53 AM 55.9 °F 55.0 °F 97% 30.07 in 10.0 mi SE 3.5 mph - 0.07 in   Overcast
9:53 AM 57.0 °F 55.9 °F 96% 30.07 in 10.0 mi SE 3.5 mph - 0.00 in   Overcast
10:53 AM 57.9 °F 55.9 °F 93% 30.06 in 10.0 mi East 5.8 mph - 0.00 in   Overcast
11:53 AM 60.1 °F 57.0 °F 90% 30.05 in 10.0 mi ESE 5.8 mph - N/A   Overcast
12:19 PM 60.1 °F 57.9 °F 93% 30.05 in 10.0 mi ESE 6.9 mph - N/A   Overcast
12:53 PM 60.1 °F 57.9 °F 93% 30.05 in 5.0 mi East 5.8 mph - 0.00 in Rain Light Rain
1:53 PM 62.1 °F 59.0 °F 90% 30.04 in 10.0 mi Variable 4.6 mph - 0.00 in   Overcast
2:53 PM 61.0 °F 59.0 °F 93% 30.03 in 10.0 mi ENE 6.9 mph - N/A   Overcast
3:40 PM 61.0 °F 57.9 °F 90% 30.03 in 10.0 mi East 5.8 mph - N/A   Overcast
3:53 PM 62.1 °F 57.9 °F 86% 30.03 in 10.0 mi East 6.9 mph - N/A   Overcast
5:53 PM 62.1 °F 59.0 °F 90% 30.04 in 10.0 mi East 8.1 mph - N/A   Overcast
7:11 PM 61.0 °F 59.0 °F 93% 30.05 in 9.0 mi ESE 4.6 mph - N/A   Overcast
7:40 PM 61.0 °F 59.0 °F 93% 30.05 in 10.0 mi East 6.9 mph - N/A   Overcast
7:53 PM 61.0 °F 59.0 °F 93% 30.05 in 10.0 mi East 8.1 mph - N/A   Overcast
9:24 PM 60.1 °F 57.9 °F 93% 30.07 in 10.0 mi East 3.5 mph - N/A   Overcast
9:53 PM 60.1 °F 57.0 °F 90% 30.07 in 10.0 mi East 3.5 mph - N/A   Overcast
11:53 PM 59.0 °F 55.9 °F 90% 30.06 in 10.0 mi East 5.8 mph - N/A   Overcast